| time (UTC) | temp F | wind direction | speed knots | gust knots | rain 1hr in | rain 24hr in | rain mn in | humidity % | barometer mb |
| 20260901204558 | 94 | 311 | 0.0 | 2.6 | 0.00 | 0.08 | 0.00 | 54 | 1011.8 |
| 20260901203103 | 94 | 146 | 0.0 | 2.6 | 0.00 | 0.08 | 0.00 | 56 | 1011.8 |
| 20260901201604 | 93 | 252 | 0.0 | 3.5 | 0.00 | 0.08 | 0.00 | 54 | 1011.8 |
| 20260901200104 | 93 | 124 | 0.9 | 3.5 | 0.00 | 0.08 | 0.00 | 56 | 1012.1 |
| 20260901194607 | 94 | 271 | 0.0 | 2.6 | 0.00 | 0.08 | 0.00 | 55 | 1012.1 |
| 20260901193114 | 94 | 222 | 0.0 | 3.5 | 0.00 | 0.08 | 0.00 | 54 | 1012.0 |
| 20260901191605 | 94 | 314 | 0.0 | 5.2 | 0.00 | 0.08 | 0.00 | 55 | 1012.0 |
| 20260901190100 | 93 | 162 | 0.0 | 3.5 | 0.00 | 0.08 | 0.00 | 56 | 1012.1 |
| 20260901184603 | 94 | 297 | 0.9 | 4.3 | 0.00 | 0.08 | 0.00 | 56 | 1012.3 |
| 20260901183103 | 94 | 0 | 0.9 | 3.5 | 0.00 | 0.08 | 0.00 | 54 | 1012.4 |
| 20260901181556 | 94 | 0 | 0.0 | 2.6 | 0.00 | 0.08 | 0.00 | 55 | 1012.6 |
| 20260901174600 | 93 | 290 | 0.0 | 7.8 | 0.00 | 0.08 | 0.00 | 58 | 1012.5 |
| 20260901173104 | 93 | 249 | 0.9 | 7.0 | 0.00 | 0.08 | 0.00 | 59 | 1012.7 |
| 20260901171601 | 92 | 135 | 0.0 | 4.3 | 0.00 | 0.08 | 0.00 | 62 | 1012.9 |
| 20260901170120 | 91 | 124 | 0.9 | 3.5 | 0.00 | 0.08 | 0.00 | 61 | 1012.9 |
| 20260901164607 | 91 | 165 | 0.0 | 3.5 | 0.00 | 0.08 | 0.00 | 61 | 1013.2 |
| 20260901163056 | 90 | 250 | 0.0 | 3.5 | 0.00 | 0.08 | 0.00 | 64 | 1013.2 |
| 20260901161602 | 88 | 152 | 0.0 | 4.3 | 0.00 | 0.08 | 0.00 | 65 | 1013.0 |
| 20260901154612 | 87 | 149 | 0.0 | 2.6 | 0.00 | 0.09 | 0.00 | 68 | 1013.0 |
| 20260901153103 | 85 | 0 | 0.0 | 2.6 | 0.00 | 0.09 | 0.00 | 70 | 1013.1 |
| 20260901151601 | 84 | 300 | 0.0 | 0.9 | 0.00 | 0.09 | 0.00 | 70 | 1013.1 |
| 20260901150110 | 83 | 0 | 0.0 | 2.6 | 0.00 | 0.09 | 0.00 | 71 | 1013.1 |
| 20260901144601 | 83 | 0 | 0.0 | 1.7 | 0.00 | 0.12 | 0.00 | 73 | 1013.2 |
| 20260901143059 | 82 | 0 | 0.9 | 2.6 | 0.00 | 0.12 | 0.00 | 73 | 1013.1 |
| 20260901141600 | 81 | 172 | 0.0 | 2.6 | 0.00 | 0.12 | 0.00 | 75 | 1013.0 |
| 20260901140109 | 80 | 0 | 0.0 | 0.9 | 0.00 | 0.12 | 0.00 | 77 | 1013.0 |
| 20260901134600 | 79 | 0 | 0.0 | 1.7 | 0.00 | 0.24 | 0.00 | 78 | 1012.9 |
| 20260901133105 | 78 | 0 | 0.0 | 0.0 | 0.00 | 0.24 | 0.00 | 79 | 1013.1 |
| 20260901131601 | 78 | 0 | 0.0 | 0.0 | 0.00 | 0.24 | 0.00 | 79 | 1013.3 |
| 20260901124606 | 77 | 0 | 0.0 | 0.0 | 0.00 | 0.25 | 0.00 | 81 | 1013.2 |
| 20260901123057 | 77 | 0 | 0.0 | 0.0 | 0.00 | 0.25 | 0.00 | 82 | 1013.1 |
| 20260901121606 | 77 | 0 | 0.0 | 0.0 | 0.00 | 0.25 | 0.00 | 82 | 1012.7 |
| 20260901120116 | 77 | 0 | 0.0 | 0.0 | 0.00 | 0.25 | 0.00 | 81 | 1012.6 |
| 20260901114559 | 76 | 0 | 0.0 | 0.0 | 0.00 | 0.25 | 0.00 | 81 | 1012.5 |
| 20260901113115 | 76 | 0 | 0.0 | 0.0 | 0.00 | 0.25 | 0.00 | 81 | 1012.3 |
| 20260901111600 | 76 | 0 | 0.0 | 0.0 | 0.00 | 0.25 | 0.00 | 81 | 1012.0 |
| 20260901110119 | 76 | 0 | 0.0 | 0.0 | 0.00 | 0.25 | 0.00 | 82 | 1011.9 |
| 20260901104602 | 76 | 0 | 0.0 | 0.0 | 0.00 | 0.25 | 0.00 | 82 | 1011.8 |
| 20260901103109 | 77 | 0 | 0.0 | 0.0 | 0.00 | 0.25 | 0.00 | 81 | 1011.6 |
| 20260901101601 | 77 | 0 | 0.0 | 0.0 | 0.00 | 0.25 | 0.00 | 80 | 1011.9 |
| 20260901100105 | 78 | 0 | 0.0 | 0.0 | 0.00 | 0.25 | 0.00 | 78 | 1011.7 |
| 20260901094600 | 78 | 0 | 0.0 | 0.9 | 0.00 | 0.25 | 0.00 | 77 | 1011.7 |
| 20260901093103 | 78 | 0 | 0.0 | 1.7 | 0.00 | 0.25 | 0.00 | 77 | 1011.7 |
| 20260901091605 | 78 | 0 | 0.0 | 1.7 | 0.00 | 0.25 | 0.00 | 76 | 1011.6 |
| 20260901090106 | 79 | 0 | 0.0 | 0.9 | 0.00 | 0.25 | 0.00 | 75 | 1011.5 |
| 20260901084604 | 79 | 0 | 0.0 | 1.7 | 0.00 | 0.25 | 0.00 | 75 | 1011.4 |
| 20260901083101 | 79 | 291 | 0.0 | 1.7 | 0.00 | 0.25 | 0.00 | 74 | 1011.4 |
| 20260901081559 | 80 | 0 | 0.0 | 1.7 | 0.00 | 0.25 | 0.00 | 73 | 1011.4 |
| 20260901080059 | 80 | 0 | 0.0 | 1.7 | 0.00 | 0.25 | 0.00 | 73 | 1011.3 |
| 20260901074603 | 80 | 142 | 0.0 | 1.7 | 0.00 | 0.25 | 0.00 | 73 | 1011.3 |
| 20260901073100 | 79 | 0 | 0.0 | 0.9 | 0.00 | 0.25 | 0.00 | 74 | 1011.3 |
| 20260901071558 | 80 | 0 | 0.0 | 0.9 | 0.00 | 0.25 | 0.00 | 73 | 1011.4 |
| 20260901064602 | 80 | 0 | 0.0 | 2.6 | 0.00 | 0.25 | 0.00 | 74 | 1011.1 |
| 20260901063115 | 80 | 0 | 0.0 | 0.9 | 0.00 | 0.25 | 0.00 | 74 | 1011.0 |
| 20260901061559 | 80 | 0 | 0.0 | 1.7 | 0.00 | 0.25 | 0.00 | 74 | 1010.8 |
| 20260901060106 | 80 | 0 | 0.0 | 0.9 | 0.00 | 0.25 | 0.00 | 74 | 1011.1 |
| 20260901054600 | 80 | 0 | 0.0 | 1.7 | 0.00 | 0.25 | 0.00 | 74 | 1011.1 |
| 20260901053101 | 80 | 182 | 0.0 | 1.7 | 0.00 | 0.25 | 0.00 | 75 | 1011.0 |
| 20260901051618 | 80 | 0 | 0.0 | 1.7 | 0.00 | 0.25 | 0.00 | 76 | 1010.9 |
| 20260901050104 | 79 | 145 | 0.0 | 2.6 | 0.00 | 0.25 | 0.00 | 77 | 1011.0 |
| 20260901044603 | 79 | 0 | 0.0 | 0.9 | 0.00 | 0.25 | 0.25 | 77 | 1011.1 |
| 20260901043105 | 79 | 0 | 0.0 | 0.9 | 0.00 | 0.25 | 0.25 | 78 | 1011.1 |
| 20260901041601 | 79 | 0 | 0.0 | 0.9 | 0.00 | 0.25 | 0.25 | 79 | 1011.3 |
| 20260901034609 | 78 | 157 | 0.0 | 1.7 | 0.00 | 0.27 | 0.25 | 81 | 1011.1 |
| 20260901033114 | 78 | 0 | 0.0 | 0.9 | 0.00 | 0.27 | 0.25 | 82 | 1011.2 |
| 20260901031604 | 78 | 0 | 0.0 | 0.0 | 0.00 | 0.27 | 0.25 | 84 | 1011.4 |
| 20260901030103 | 78 | 0 | 0.0 | 0.0 | 0.00 | 0.27 | 0.25 | 84 | 1011.4 |
| 20260901024607 | 78 | 0 | 0.0 | 0.0 | 0.00 | 0.27 | 0.25 | 84 | 1011.7 |
| 20260901023107 | 78 | 0 | 0.0 | 0.0 | 0.00 | 0.27 | 0.25 | 84 | 1011.9 |
| 20260901021606 | 78 | 0 | 0.0 | 0.0 | 0.00 | 0.27 | 0.25 | 82 | 1011.7 |
| 20260901014608 | 79 | 0 | 0.0 | 0.0 | 0.00 | 0.27 | 0.25 | 81 | 1011.5 |
| 20260901013108 | 79 | 0 | 0.0 | 0.9 | 0.00 | 0.27 | 0.25 | 81 | 1011.7 |
| 20260901011600 | 79 | 0 | 0.0 | 0.0 | 0.00 | 0.27 | 0.25 | 82 | 1011.6 |
| 20260901010115 | 79 | 0 | 0.0 | 0.0 | 0.00 | 0.27 | 0.25 | 82 | 1011.5 |
| 20260901004618 | 80 | 0 | 0.0 | 1.7 | 0.00 | 0.28 | 0.25 | 80 | 1011.6 |
| 20260901003104 | 80 | 0 | 0.0 | 0.9 | 0.00 | 0.28 | 0.25 | 83 | 1011.6 |
| 20260901001605 | 80 | 179 | 0.0 | 1.7 | 0.00 | 0.28 | 0.25 | 83 | 1011.0 |
| 20260901000109 | 80 | 0 | 0.0 | 1.7 | 0.00 | 0.28 | 0.25 | 85 | 1011.0 |
| 20260831234608 | 80 | 0 | 0.0 | 1.7 | 0.01 | 0.29 | 0.25 | 86 | 1011.3 |
| 20260831233101 | 81 | 0 | 0.0 | 0.0 | 0.08 | 0.29 | 0.25 | 86 | 1011.9 |
| 20260831231608 | 81 | 0 | 0.0 | 0.0 | 0.08 | 0.29 | 0.25 | 84 | 1011.4 |
| 20260831230106 | 82 | 0 | 0.0 | 0.0 | 0.08 | 0.29 | 0.25 | 80 | 1011.3 |
| 20260831224604 | 85 | 0 | 0.0 | 0.0 | 0.07 | 0.29 | 0.24 | 74 | 1011.3 |
| 20260831223105 | 86 | 0 | 0.0 | 0.0 | 0.00 | 0.22 | 0.17 | 68 | 1011.6 |
| 20260831221610 | 87 | 0 | 0.0 | 0.9 | 0.00 | 0.22 | 0.17 | 66 | 1011.5 |
| 20260831220105 | 88 | 0 | 0.0 | 3.5 | 0.00 | 0.22 | 0.17 | 65 | 1010.9 |
| 20260831214600 | 88 | 0 | 0.0 | 4.3 | 0.00 | 0.22 | 0.17 | 65 | 1010.7 |
| 20260831213057 | 88 | 0 | 0.9 | 3.5 | 0.00 | 0.22 | 0.17 | 66 | 1010.8 |
| 20260831211606 | 87 | 163 | 0.0 | 1.7 | 0.00 | 0.22 | 0.17 | 65 | 1011.1 |